Radiation Dose at Monitoring Post of Fukushima Daini Nuclear Power Station
Date,Time,MP-1(microSv/h),MP-2(microSv/h),MP-3(microSv/h),MP-4(microSv/h),MP-5(microSv/h),MP-6(microSv/h),MP-7(microSv/h),Wind Direction,Wind Velocity(m/s),Rain
2019/02/08,00:00,0.216,0.196,0.322,0.299,0.280,0.160,0.096,west-northwest,8.4,No
2019/02/08,00:10,0.216,0.197,0.321,0.298,0.281,0.160,0.095,northwest,6.9,No
2019/02/08,00:20,0.217,0.198,0.322,0.300,0.280,0.160,0.096,west-northwest,11.8,No
2019/02/08,00:30,0.217,0.196,0.322,0.299,0.280,0.160,0.096,west-northwest,12.6,No
2019/02/08,00:40,0.214,0.196,0.321,0.300,0.279,0.160,0.096,west-northwest,13.1,No
2019/02/08,00:50,0.216,0.196,0.321,0.298,0.280,0.161,0.096,west-northwest,13.4,No
2019/02/08,01:00,0.216,0.196,0.323,0.300,0.279,0.161,0.096,west-northwest,15.1,No
2019/02/08,01:10,0.215,0.196,0.322,0.300,0.279,0.161,0.096,west-northwest,13.1,No
2019/02/08,01:20,0.216,0.196,0.323,0.300,0.281,0.160,0.097,west-northwest,10.6,No
2019/02/08,01:30,0.217,0.198,0.322,0.299,0.281,0.161,0.096,west-northwest,14.2,No
2019/02/08,01:40,0.216,0.196,0.323,0.300,0.280,0.160,0.096,west-northwest,12.0,No
2019/02/08,01:50,0.215,0.197,0.323,0.299,0.280,0.160,0.097,west-northwest,11.1,No
2019/02/08,02:00,0.217,0.197,0.323,0.300,0.281,0.159,0.096,west-northwest,10.3,No
2019/02/08,02:10,0.216,0.196,0.323,0.300,0.282,0.160,0.096,west-northwest,12.3,No
2019/02/08,02:20,0.216,0.196,0.323,0.299,0.280,0.160,0.096,west-northwest,9.6,No
2019/02/08,02:30,0.216,0.197,0.323,0.299,0.281,0.159,0.096,northwest,7.1,No
2019/02/08,02:40,0.218,0.197,0.322,0.300,0.281,0.160,0.096,west-northwest,10.3,No
2019/02/08,02:50,0.215,0.197,0.322,0.299,0.280,0.160,0.096,northwest,9.2,No
2019/02/08,03:00,0.215,0.198,0.322,0.299,0.281,0.160,0.096,west-northwest,10.6,No
2019/02/08,03:10,0.216,0.197,0.323,0.300,0.279,0.160,0.096,west-northwest,8.5,No
2019/02/08,03:20,0.216,0.197,0.322,0.299,0.280,0.160,0.096,west-northwest,13.4,No
2019/02/08,03:30,0.216,0.196,0.322,0.299,0.281,0.160,0.096,west-northwest,14.3,No
2019/02/08,03:40,0.215,0.197,0.322,0.300,0.280,0.160,0.097,west-northwest,16.6,No
2019/02/08,03:50,0.214,0.196,0.323,0.300,0.281,0.160,0.096,west-northwest,14.9,No
2019/02/08,04:00,0.215,0.196,0.323,0.299,0.281,0.161,0.096,west-northwest,14.2,No
2019/02/08,04:10,0.216,0.197,0.322,0.298,0.280,0.159,0.096,west-northwest,14.4,No
2019/02/08,04:20,0.216,0.196,0.322,0.299,0.280,0.159,0.096,west-northwest,16.2,No
2019/02/08,04:30,0.215,0.195,0.321,0.298,0.279,0.161,0.096,northwest,20.9,No
2019/02/08,04:40,0.216,0.195,0.321,0.298,0.279,0.160,0.096,northwest,17.7,No
2019/02/08,04:50,0.216,0.194,0.322,0.298,0.280,0.160,0.096,northwest,19.9,No
2019/02/08,05:00,0.215,0.194,0.322,0.299,0.281,0.160,0.096,northwest,17.9,No
2019/02/08,05:10,0.215,0.194,0.323,0.299,0.280,0.159,0.097,northwest,16.7,No
2019/02/08,05:20,0.216,0.194,0.323,0.300,0.281,0.161,0.096,northwest,17.0,No
2019/02/08,05:30,0.216,0.196,0.323,0.299,0.281,0.160,0.097,north-northwest,16.8,No
2019/02/08,05:40,0.217,0.196,0.323,0.300,0.280,0.161,0.097,north-northwest,18.4,No
2019/02/08,05:50,0.217,0.196,0.323,0.299,0.280,0.161,0.097,north-northwest,14.5,No
2019/02/08,06:00,0.217,0.197,0.324,0.299,0.280,0.160,0.096,north-northwest,12.2,No
2019/02/08,06:10,0.217,0.198,0.324,0.299,0.282,0.159,0.096,north-northwest,11.2,No
2019/02/08,06:20,0.217,0.199,0.323,0.299,0.282,0.160,0.096,north-northwest,7.3,No
2019/02/08,06:30,0.217,0.198,0.325,0.300,0.282,0.160,0.096,north-northwest,5.6,No
2019/02/08,06:40,0.215,0.199,0.321,0.298,0.282,0.161,0.095,north,3.0,No
2019/02/08,06:50,0.216,0.198,0.323,0.298,0.281,0.161,0.096,north-northwest,2.1,No
2019/02/08,07:00,0.216,0.198,0.321,0.298,0.279,0.160,0.096,north-northwest,3.7,No
2019/02/08,07:10,0.217,0.197,0.321,0.297,0.279,0.159,0.097,north,4.9,No
2019/02/08,07:20,0.217,0.197,0.322,0.299,0.280,0.159,0.095,north,4.6,No
2019/02/08,07:30,0.215,0.196,0.321,0.297,0.279,0.158,0.095,north,5.3,No
2019/02/08,07:40,0.215,0.197,0.321,0.299,0.280,0.159,0.096,north-northwest,4.4,No
2019/02/08,07:50,0.216,0.196,0.319,0.298,0.279,0.158,0.096,north,4.3,No
2019/02/08,08:00,0.216,0.197,0.321,0.298,0.279,0.160,0.096,north,3.6,No
2019/02/08,08:10,0.215,0.196,0.321,0.297,0.279,0.159,0.096,north,4.6,No
2019/02/08,08:20,0.216,0.197,0.321,0.296,0.278,0.160,0.096,north,3.6,No
2019/02/08,08:30,0.215,0.196,0.321,0.298,0.279,0.159,0.096,north-northwest,2.7,No
2019/02/08,08:40,0.215,0.196,0.321,0.298,0.278,0.159,0.095,north-northwest,1.3,No
2019/02/08,08:50,0.216,0.197,0.319,0.298,0.278,0.160,0.096,west-northwest,1.8,No
2019/02/08,09:00,0.214,0.197,0.319,0.298,0.279,0.160,0.096,west-northwest,1.5,No
2019/02/08,09:10,0.216,0.196,0.321,0.298,0.280,0.159,0.096,north-northwest,1.4,No
2019/02/08,09:20,0.215,0.195,0.320,0.298,0.279,0.159,0.095,west-northwest,4.8,No
2019/02/08,09:30,0.216,0.197,0.321,0.297,0.279,0.158,0.095,west-northwest,4.3,No
2019/02/08,09:40,0.215,0.197,0.320,0.298,0.279,0.158,0.095,west-northwest,4.5,No
2019/02/08,09:50,0.216,0.196,0.321,0.296,0.278,0.160,0.095,west,6.7,No
2019/02/08,10:00,0.215,0.194,0.319,0.296,0.279,0.161,0.096,west,7.8,No
2019/02/08,10:10,0.215,0.196,0.320,0.298,0.279,0.159,0.095,west-northwest,7.0,No
2019/02/08,10:20,0.214,0.196,0.320,0.298,0.278,0.159,0.096,west,10.0,No
2019/02/08,10:30,0.214,0.196,0.320,0.299,0.279,0.159,0.096,west-northwest,8.4,No
2019/02/08,10:40,0.214,0.196,0.321,0.298,0.280,0.160,0.096,west,5.3,No
2019/02/08,10:50,0.216,0.197,0.322,0.299,0.279,0.159,0.095,west,7.0,No
2019/02/08,11:00,0.215,0.196,0.321,0.299,0.280,0.159,0.096,west,7.8,No
2019/02/08,11:10,0.214,0.195,0.320,0.299,0.279,0.159,0.096,west-southwest,10.6,No
2019/02/08,11:20,0.214,0.196,0.321,0.298,0.280,0.159,0.096,west,9.3,No
2019/02/08,11:30,0.215,0.196,0.322,0.297,0.279,0.159,0.095,west,10.3,No
2019/02/08,11:40,0.215,0.196,0.320,0.298,0.279,0.160,0.095,west,12.5,No
2019/02/08,11:50,0.214,0.197,0.320,0.299,0.279,0.160,0.096,west,13.4,No
2019/02/08,12:00,0.215,0.196,0.321,0.296,0.278,0.160,0.096,west,14.5,No
2019/02/08,12:10,0.215,0.195,0.322,0.297,0.278,0.159,0.095,west,15.0,No
2019/02/08,12:20,0.215,0.196,0.320,0.298,0.279,0.160,0.097,west,16.8,No
2019/02/08,12:30,0.215,0.197,0.320,0.300,0.281,0.159,0.095,west-northwest,11.4,No
2019/02/08,12:40,0.215,0.198,0.321,0.298,0.281,0.160,0.095,west,12.3,No
2019/02/08,12:50,0.216,0.197,0.321,0.299,0.281,0.159,0.096,west,13.6,No
2019/02/08,13:00,0.215,0.195,0.321,0.300,0.281,0.160,0.096,west-northwest,11.5,No
2019/02/08,13:10,0.216,0.195,0.320,0.299,0.279,0.159,0.097,west,12.8,No
2019/02/08,13:20,0.214,0.196,0.321,0.298,0.281,0.160,0.097,west,15.9,No
2019/02/08,13:30,0.215,0.196,0.320,0.298,0.280,0.159,0.095,west-northwest,12.3,No
2019/02/08,13:40,0.215,0.196,0.321,0.298,0.279,0.159,0.096,west,16.5,No
2019/02/08,13:50,0.215,0.196,0.320,0.298,0.279,0.159,0.095,west-northwest,12.5,No
2019/02/08,14:00,0.216,0.196,0.320,0.299,0.280,0.159,0.096,west,14.0,No
2019/02/08,14:10,0.215,0.197,0.323,0.299,0.280,0.159,0.095,west,14.2,No
2019/02/08,14:20,0.216,0.196,0.322,0.299,0.279,0.159,0.096,west,10.9,No
2019/02/08,14:30,0.217,0.197,0.321,0.300,0.279,0.160,0.096,west-northwest,11.7,No
2019/02/08,14:40,0.216,0.197,0.320,0.300,0.280,0.159,0.097,west,10.7,No
2019/02/08,14:50,0.215,0.197,0.321,0.299,0.280,0.159,0.096,west-northwest,9.2,No
2019/02/08,15:00,0.217,0.198,0.321,0.298,0.281,0.159,0.096,west,12.0,No
2019/02/08,15:10,0.215,0.197,0.323,0.299,0.281,0.159,0.097,west-northwest,7.4,No
2019/02/08,15:20,0.216,0.196,0.321,0.300,0.281,0.159,0.096,west,7.5,No
2019/02/08,15:30,0.217,0.197,0.320,0.300,0.281,0.160,0.095,west,9.8,No
2019/02/08,15:40,0.215,0.195,0.322,0.298,0.280,0.160,0.096,west,12.5,No
2019/02/08,15:50,0.216,0.198,0.321,0.301,0.280,0.160,0.096,west-northwest,8.2,No
2019/02/08,16:00,0.216,0.198,0.322,0.300,0.280,0.160,0.096,west-northwest,11.5,No
2019/02/08,16:10,0.216,0.197,0.320,0.299,0.280,0.160,0.096,west-northwest,9.0,No
2019/02/08,16:20,0.216,0.197,0.322,0.299,0.280,0.160,0.096,west,12.0,No
2019/02/08,16:30,0.215,0.196,0.321,0.298,0.282,0.160,0.097,west,10.0,No
2019/02/08,16:40,0.215,0.198,0.321,0.299,0.281,0.161,0.097,west,9.0,No
2019/02/08,16:50,0.215,0.196,0.321,0.300,0.280,0.160,0.096,west,7.8,No
2019/02/08,17:00,0.215,0.197,0.321,0.300,0.281,0.159,0.095,west,7.9,No
2019/02/08,17:10,0.216,0.196,0.321,0.298,0.280,0.161,0.096,west,5.9,No
2019/02/08,17:20,0.217,0.198,0.323,0.299,0.280,0.160,0.097,west,6.2,No
2019/02/08,17:30,0.215,0.198,0.320,0.300,0.280,0.159,0.097,west-northwest,3.4,No
2019/02/08,17:40,0.216,0.196,0.322,0.299,0.282,0.160,0.096,west-northwest,4.2,No
2019/02/08,17:50,0.215,0.197,0.322,0.299,0.279,0.159,0.096,west-northwest,4.9,No
2019/02/08,18:00,0.217,0.197,0.322,0.300,0.279,0.159,0.096,west-northwest,4.7,No
2019/02/08,18:10,0.215,0.196,0.320,0.299,0.279,0.159,0.096,west-northwest,3.8,No
2019/02/08,18:20,0.216,0.197,0.321,0.299,0.280,0.159,0.096,west-northwest,3.6,No
2019/02/08,18:30,0.217,0.197,0.321,0.299,0.279,0.160,0.096,west,2.1,No
2019/02/08,18:40,0.215,0.197,0.321,0.300,0.279,0.160,0.096,west,1.8,No
2019/02/08,18:50,0.215,0.197,0.320,0.299,0.279,0.160,0.097,west-southwest,1.6,No
2019/02/08,19:00,0.216,0.196,0.320,0.299,0.280,0.160,0.096,south,1.3,No
2019/02/08,19:10,0.215,0.197,0.321,0.299,0.279,0.160,0.096,south-southwest,1.6,No
2019/02/08,19:20,0.216,0.197,0.320,0.299,0.280,0.159,0.096,southwest,2.8,No
2019/02/08,19:30,0.216,0.197,0.321,0.299,0.279,0.160,0.096,southwest,2.2,No
2019/02/08,19:40,0.216,0.198,0.319,0.301,0.278,0.160,0.096,southwest,2.8,No
2019/02/08,19:50,0.216,0.197,0.320,0.299,0.278,0.159,0.096,west-southwest,4.1,No
2019/02/08,20:00,0.215,0.196,0.321,0.299,0.277,0.160,0.096,west-southwest,6.3,No
2019/02/08,20:10,0.215,0.197,0.322,0.300,0.278,0.160,0.096,west,8.5,No
2019/02/08,20:20,0.215,0.197,0.321,0.299,0.279,0.159,0.096,west,10.3,No
2019/02/08,20:30,0.215,0.196,0.321,0.299,0.279,0.160,0.096,west,8.4,No
2019/02/08,20:40,0.216,0.196,0.321,0.299,0.279,0.159,0.096,west-northwest,7.4,No
2019/02/08,20:50,0.216,0.197,0.321,0.299,0.278,0.160,0.095,west-northwest,5.8,No
2019/02/08,21:00,0.215,0.196,0.322,0.300,0.279,0.160,0.096,northwest,6.8,No
2019/02/08,21:10,0.215,0.197,0.322,0.298,0.279,0.160,0.096,northwest,5.7,No
2019/02/08,21:20,0.216,0.196,0.321,0.299,0.278,0.160,0.096,west-northwest,8.8,No
2019/02/08,21:30,0.215,0.196,0.321,0.300,0.278,0.160,0.096,west-northwest,7.5,No
2019/02/08,21:40,0.215,0.195,0.320,0.298,0.279,0.159,0.096,west-northwest,10.1,No
2019/02/08,21:50,0.214,0.197,0.321,0.299,0.279,0.160,0.096,west-northwest,6.0,No
2019/02/08,22:00,0.215,0.197,0.320,0.300,0.279,0.159,0.095,northwest,4.2,No
2019/02/08,22:10,0.217,0.197,0.321,0.298,0.280,0.159,0.096,northwest,5.3,No
2019/02/08,22:20,0.216,0.196,0.321,0.298,0.280,0.160,0.096,northwest,5.3,No
2019/02/08,22:30,0.216,0.197,0.321,0.298,0.280,0.160,0.095,northwest,6.1,No
2019/02/08,22:40,0.216,0.196,0.320,0.299,0.278,0.160,0.096,northwest,5.9,No
2019/02/08,22:50,0.216,0.196,0.321,0.299,0.278,0.159,0.096,north-northwest,6.7,No
2019/02/08,23:00,0.215,0.196,0.321,0.299,0.277,0.159,0.096,north-northwest,9.2,No
2019/02/08,23:10,0.216,0.197,0.322,0.299,0.279,0.159,0.096,north-northwest,7.3,No
2019/02/08,23:20,0.215,0.197,0.321,0.299,0.280,0.159,0.096,north-northwest,7.5,No
2019/02/08,23:30,0.216,0.196,0.321,0.298,0.280,0.161,0.095,north-northwest,6.1,No
2019/02/08,23:40,0.215,0.197,0.323,0.298,0.279,0.160,0.096,north-northwest,6.1,No
2019/02/08,23:50,0.216,0.197,0.322,0.300,0.280,0.160,0.096,north-northwest,6.5,No
